www.pogodaiklimat.ru
Время
и дата
16:56 29.12
17:56 29.12
18:56 29.12
19:56 29.12
20:56 29.12
21:56 29.12
22:56 29.12
23:56 29.12
00:56 30.12
01:56 30.12
02:56 30.12
03:56 30.12
04:56 30.12
05:56 30.12
06:56 30.12
07:56 30.12
08:56 30.12
09:56 30.12
10:56 30.12
11:56 30.12
12:56 30.12
13:56 30.12
14:56 30.12
15:56 30.12
16:56 30.12
17:56 30.12
18:56 30.12
19:56 30.12
20:56 30.12
21:56 30.12
22:56 30.12
23:56 30.12
00:56 31.12
01:56 31.12
02:56 31.12
03:56 31.12
04:56 31.12
05:56 31.12
06:56 31.12
07:56 31.12
08:56 31.12
09:56 31.12
10:56 31.12
11:56 31.12
12:56 31.12
13:21 31.12
13:56 31.12
14:56 31.12
Ветер
(напр.,м/с)
Видим. Явления Облачность Т
(С)
Тd
(С)
f
(%)
Тe
(С)
Тes
(С)
Комфортность P
(гПа)
Po
(гПа)
Тmin
(С)
Tmax
(С)
R
(мм)
R24
(мм)
S
(см)
Ю 2 16 км 8/2 1650 м
[Ac]
+9.4 -1.1 48 +7 +7 1010.3 932.7
нст 1 16 км 10/5 1650 м
[Ac]
+9.4 -1.7 46 +8 +8 1011.3 933.6
Ю 1 16 км 8/5 1650 м
[Ac]
+9.4 -1.7 46 +8 +8 1011.9 934.2
Ю 1 16 км 10/5 1650 м
[Ac]
+8.9 -1.7 47 +8 +8 1012.3 934.5
Ю 1 16 км 10/8 1650 м
[Ac]
+8.9 -1.7 47 +7 +7 1012.8 935.2
штиль 0 16 км 8/2 1290 м
[Ac]
+8.3 +1.7 63 +8 +8 1012.8 935.5 NS +10.0
С 1 16 км 8/2 1650 м
[Ac]
+7.8 +2.8 71 +6 +6 1012.8 935.5 NS
СЗ 1 16 км 10/2 1800 м
[Ac]
+7.2 +1.7 68 +5 +5 1012.7 935.2
З 1 16 км 10/2 1800 м
[Ac]
+7.2 +1.7 68 +5 +5 1012.7 935.5
З 1 16 км 10/8 1200 м
[Ac]
+7.2 +1.7 68 +5 +5 1012.9 935.8
З 1 16 км 10/8 1350 м
[Ac]
+7.2 +1.7 68 +5 +5 1012.8 935.5 NS
штиль 0 16 км 10/5 1500 м
[Ac]
+7.2 +2.2 71 +7 +7 1012.3 935.2 NS +8.3
З 1 16 км 10/8 1350 м
[Ac]
+7.2 +1.7 68 +5 +5 1012.6 935.5
штиль 0 16 км 10/8 1500 м
[Ac]
+7.2 +1.7 68 +7 +7 1012.9 935.5
штиль 0 16 км 10/8 1200 м
[Ac]
+7.2 +1.7 68 +7 +7 1013.2 935.8
штиль 0 16 км 8/5 1200 м
[Ac]
+7.8 +2.2 68 +7 +7 1013.4 936.1
штиль 0 16 км 8/2 1200 м
[Ac]
+8.3 +2.2 65 +8 +8 1013.7 936.4
штиль 0 16 км 8/2 1650 м
[Ac]
+9.4 +1.7 59 +9 +11 1013.5 936.1 +6.7 +9.4
В 1 16 км 8/5 1500 м
[Ac]
+10.6 +1.7 54 +10 +11 1012.7 935.5
ЮВ 1 16 км 8/5 1500 м
[Ac]
+11.1 +2.2 54 +10 +11 1011.5 934.5
нст 1 16 км 10/8 1260 м
[Ac]
+12.2 +1.1 47 +11 +12 1010.3 933.3
Ю 2
{4}
16 км 10/10 1260 м +12.8 +1.1 45 +11 +11 1009.7 933.0
Ю 2
{4}
16 км 8/8 1260 м +12.2 +1.1 47 +10 +10 1009.0 932.4
Ю 2
{4}
16 км 8/8 1260 м +12.2 +1.7 49 +10 +10 1008.6 932.0 +9.4 +12.8
ЮЗ 2 16 км 8/8 1380 м +12.2 +1.7 49 +11 +11 1008.6 931.7
Ю 2
{4}
16 км 8/8 1350 м +11.7 +1.7 50 +10 +10 1008.5 931.7
Ю 2
{4}
16 км 8/8 1350 м
[Ac]
+11.1 +1.7 52 +9 +9 1008.3 931.7
Ю 3
{4}
16 км 8/5 1350 м
[Ac]
+11.1 +1.7 52 +8 +8 1008.3 931.7
Ю 2
{4}
16 км 8/5 1350 м
[Ac]
+11.1 +1.7 52 +9 +9 1008.3 931.7
Ю 2
{4}
16 км 8/2 1800 м
[Ac]
+11.1 +2.2 54 +9 +9 1008.4 931.7 +11.1 +12.2
Ю 2 16 км 10/2 1800 м
[Ac Ci]
+11.1 +2.8 57 +9 +9 1007.5 931.1 NS
Ю 3
{4}
16 км 10/8 1800 м
[Ac]
+11.1 +2.8 57 +8 +8 1006.7 930.5 NS
Ю 3
{5}
16 км 10/10 1500 м +11.1 +2.8 57 +8 +8 1006.4 930.2 NS
Ю 2 16 км 10/10 1500 м +10.6 +3.3 61 +8 +8 1005.4 929.2 NS
Ю 3
{5}
16 км 10/10 1500 м +11.1 +2.8 57 +8 +8 1004.5 928.3 NS
Ю 2 16 км 10/10 1500 м +11.1 +2.8 57 +9 +9 1004.2 928.0 NS +11.7
Ю 2 16 км 10/10 1800 м +11.1 +2.8 57 +9 +9 1003.4 927.4 NS
Ю 2 16 км 8/8 1800 м +10.6 +2.8 58 +8 +8 1002.5 926.4
Ю 2 16 км 8/8 1800 м
[Ac]
+10.0 +2.8 61 +8 +8 1003.0 926.7
ЮЗ 2 16 км 8/8 1800 м +10.0 +2.8 61 +8 +8 1003.9 927.7
Ю 2
{4}
16 км 5/5 1800 м
[Ac]
+11.7 +2.8 54 +10 +10 1003.7 927.7
Ю 3 16 км 5/5 1800 м
[Ac]
+12.2 +2.8 53 +10 +10 1003.5 927.7 +10.0 +12.8
ЮЗ 3
{4}
16 км 5/2 1500 м
[Ac]
+12.8 +1.1 45 +11 +12 1002.3 926.4
ЮЗ 2
{4}
16 км 8/5 1500 м
[Ac]
+13.9 +1.1 42 +12 +14 1001.1 925.5
ЮЗ 2 16 км 8/8 1350 м
[Ac]
+13.3 +0.6 42 +12 +13 1000.1 924.5
З 2 16 км 8/8 1350 м
[Ac]
+13.3 +1.1 43 +12 +12 924.2
З 2 16 км 8/8 1350 м
[Ac]
+13.3 +1.7 45 +12 +12 999.6 923.9
З 2 16 км 8/8 1800 м +13.9 +1.1 42 +12 +13 998.9 923.3
Местоположение метеостанции McCarran International Airport: широта 36.0719 долгота -115.1634 высота над уровнем моря 664 м.
В архиве по умолчанию представлена погода в Лас-Вегасе за последние 1-2 суток. Обновление информации о фактической погоде в базе происходит ежечасно! Архивные данные за месяц целиком и за предыдущие месяцы Вы можете получить, выбрав интересующий диапазон дат из раскрывающегося списка и нажав кнопку "Ввод!".
Внимание! Архив погоды МЕТАР в базе сайта по станциям, не включенным в климатический монитор, хранится не более 60 дней. Нет смысла пытаться выбрать более раннюю дату.
*Определитесь, кто Вы:
Внимание! Время в таблицах - местное (без учета летнего времени). Для получения всемирного времени необходимо вычесть поправку, которая равна -8 ч.
Смотрите также архив погоды в соседних городах и на ближайших метеорологических станциях:
Партнеры нашего сайта:      
Пояснения к столбцам:
  • Ветер - указаны скорость ветра в м/с - средняя за 10 мин, порывы в срок и между сроками (в фигурных скобках) и направление, откуда дует ветер: С - северный,
  • СВ - северо-восточный, В - восточный, ЮВ - юго-восточный, Ю - южный, ЮЗ - юго-западный, З - западный, СЗ - северо-западный.
  • Видимость - горизонтальная дальность видимости в метрах или километрах. При видимости от 1 до 10 км при отсутствии осадков обычно наблюдается дымка, при ухудшении видимости до 1 км и менее - туман. В сухую погоду видимость может ухудшаться дымом, пылью или мглою.
  • Явления - указаны атмосферные явления, наблюдавшиеся в срок или в последний час перед сроком; фигурными скобками обозначены явления, наблюдавшиеся между сроками (за 1-3 часа до срока); квадратными скобками обозначены град или гололедные отложения с указанием их диаметра в мм.
  • Облачность - указаны через наклонную черту общая и нижняя облачность в баллах и высота нижней границы облаков в метрах; квадратными скобками обозначены формы облаков: Ci - перистые, Cs - перисто-слоистые, Cc - перисто-кучевые, Ac - высококучевые, As - высокослоистые, Sc - слоисто-кучевые, Ns - слоисто-дождевые, Cu - кучевые, Cb - кучево-дождевые. Подробнее классификацию облаков см. в Атласе облаков (PDF).
  • T - Температура воздуха - температура, измеренная на высоте 2 м над землей.
  • Td - Температура точки росы - температура, при понижении до которой содержащийся в воздухе водяной пар достигнет насыщения.
  • f - Относительная влажность воздуха - влажноcть воздуха, измеренная на высоте 2 м над землей.
  • Te - Эффективная температура - температура, которую ощущает одетый по сезону человек в тени. Характеристика душности погоды. При расчете учитывается влияние влажности воздуха и скорости ветра на теплоощущения человека.
  • Tes - Эффективная температура на солнце - температура, которую ощущает человек, с поправкой на солнечный нагрев. Характеристика знойности погоды. Зависит от высоты солнца над горизонтом, облачности и скорости ветра. Ночью, в пасмурную погоду, а также при ветре 12 м/с и более поправка равна нулю.
  • P - Атмосферное давление - приведенное к уровню моря атмосферное давление.
  • Po - Атмосферное давление - измеренное на уровне метеостанции атмосферное давление.
  • Tmin - Минимальная температура - минимум температуры воздуха на высоте 2 м над землей.
  • Tmax - Максимальная температура - максимум температуры воздуха на высоте 2 м над землей.
  • R - Количество осадков - Количество выпавших осадков за период времени, мм. При наведении курсора мыши на число - период времени, за который выпало указанное количество осадков.
  • R24 - Количество осадков - Количество выпавших осадков за 24 часа, мм.
  • S - Снежный покров - Высота снежного покрова, см. При наведении курсора мыши на число - состояние снежного покрова и степень покрытия местности в баллах.